AUA21M EDDL-EDDF

Flight info

Callsign AUA21M
Flight time 0h 29m
Altitude 23000
Route COL6T/23L COL T911 ROLIS ROLIS5A
Aircraft A320/M-SDE3FGHIRWY/LB1

Departure

Time 2026-05-05 11:45
Airport Düsseldorf Airport (EDDL)

Arrival

Time 2026-05-05 12:15
Airport Frankfurt Main Airport (EDDF)
Time Latitude Longitude Altitude Speed Heading
2026-05-05 11:07 51.28031 6.76226 125 ft 0 kts 163°
2026-05-05 11:30 51.28037 6.76223 129 ft 2 kts 161°
2026-05-05 11:30 51.28053 6.76213 124 ft 2 kts 161°
2026-05-05 11:31 51.28067 6.76202 124 ft 2 kts 153°
2026-05-05 11:31 51.28080 6.76187 123 ft 2 kts 139°
2026-05-05 11:31 51.28090 6.76167 125 ft 2 kts 111°
2026-05-05 11:31 51.28093 6.76141 127 ft 2 kts 73°
2026-05-05 11:32 51.28089 6.76123 127 ft 1 kts 52°
2026-05-05 11:32 51.28089 6.76122 127 ft 0 kts 46°
2026-05-05 11:34 51.28089 6.76123 127 ft 1 kts 46°
2026-05-05 11:35 51.28105 6.76157 123 ft 4 kts 56°
2026-05-05 11:35 51.28122 6.76197 128 ft 4 kts 54°
2026-05-05 11:35 51.28143 6.76239 126 ft 7 kts 46°
2026-05-05 11:35 51.28185 6.76249 126 ft 7 kts 339°
2026-05-05 11:36 51.28242 6.76257 125 ft 11 kts 50°
2026-05-05 11:36 51.28297 6.76374 121 ft 15 kts 52°
2026-05-05 11:36 51.28366 6.76518 124 ft 17 kts 52°
2026-05-05 11:36 51.28440 6.76672 127 ft 16 kts 52°
2026-05-05 11:37 51.28505 6.76808 128 ft 15 kts 52°
2026-05-05 11:37 51.28532 6.76865 128 ft 16 kts 53°
2026-05-05 11:37 51.28603 6.77016 133 ft 18 kts 52°
2026-05-05 11:37 51.28681 6.77179 132 ft 20 kts 53°
2026-05-05 11:38 51.28772 6.77368 131 ft 22 kts 53°
2026-05-05 11:38 51.28873 6.77577 124 ft 24 kts 51°
2026-05-05 11:38 51.28956 6.77756 131 ft 17 kts 54°
2026-05-05 11:38 51.29024 6.77898 134 ft 15 kts 53°
2026-05-05 11:39 51.29091 6.78038 134 ft 17 kts 52°
2026-05-05 11:39 51.29169 6.78201 135 ft 19 kts 52°
2026-05-05 11:39 51.29251 6.78375 133 ft 14 kts 53°
2026-05-05 11:39 51.29303 6.78485 134 ft 9 kts 52°
2026-05-05 11:40 51.29334 6.78541 134 ft 7 kts 42°
2026-05-05 11:40 51.29370 6.78571 133 ft 5 kts 15°
2026-05-05 11:40 51.29376 6.78572 133 ft 0 kts
2026-05-05 11:43 51.29382 6.78573 133 ft 2 kts
2026-05-05 11:44 51.29411 6.78573 133 ft 6 kts 357°
2026-05-05 11:44 51.29465 6.78566 134 ft 9 kts 354°
2026-05-05 11:44 51.29522 6.78525 135 ft 11 kts 308°
2026-05-05 11:44 51.29486 6.78398 132 ft 18 kts 232°
2026-05-05 11:45 51.29294 6.77993 135 ft 83 kts 233°
2026-05-05 11:45 51.28800 6.76955 129 ft 148 kts 232°
2026-05-05 11:45 51.28093 6.75494 417 ft 176 kts 235°
2026-05-05 11:45 51.27353 6.73944 1138 ft 179 kts 236°
2026-05-05 11:46 51.26603 6.72354 1955 ft 179 kts 235°
2026-05-05 11:46 51.25809 6.70643 2361 ft 203 kts 233°
2026-05-05 11:46 51.24905 6.68716 2700 ft 232 kts 233°
2026-05-05 11:46 51.23893 6.66538 3211 ft 256 kts 233°
2026-05-05 11:47 51.22688 6.64379 4096 ft 264 kts 214°
2026-05-05 11:47 51.20957 6.63475 4912 ft 270 kts 184°
2026-05-05 11:47 51.19077 6.63497 4917 ft 269 kts 176°
2026-05-05 11:47 51.17172 6.63836 5514 ft 280 kts 172°
2026-05-05 11:48 51.13912 6.66733 7801 ft 278 kts 127°
2026-05-05 11:48 51.13149 6.69561 8801 ft 284 kts 101°
2026-05-05 11:48 51.13155 6.72746 9745 ft 291 kts 89°
2026-05-05 11:49 51.13285 6.75974 10613 ft 295 kts 88°
2026-05-05 11:49 51.13421 6.79317 10973 ft 318 kts 89°
2026-05-05 11:49 51.13555 6.82962 11292 ft 341 kts 88°
2026-05-05 11:49 51.13702 6.86847 11625 ft 360 kts 89°
2026-05-05 11:50 51.13855 6.90883 12237 ft 369 kts 88°
2026-05-05 11:50 51.14023 6.95011 12900 ft 376 kts 88°
2026-05-05 11:50 51.14180 6.99190 13668 ft 380 kts 89°
2026-05-05 11:50 51.14333 7.03421 14365 ft 384 kts 88°
2026-05-05 11:51 51.14450 7.07690 15056 ft 387 kts 93°
2026-05-05 11:51 51.14168 7.11957 15741 ft 388 kts 102°
2026-05-05 11:51 51.13522 7.16135 16430 ft 390 kts 106°
2026-05-05 11:51 51.12824 7.20337 17083 ft 394 kts 110°
2026-05-05 11:52 51.11670 7.24296 17755 ft 395 kts 123°
2026-05-05 11:52 51.10006 7.27717 18382 ft 397 kts 135°
2026-05-05 11:52 51.07925 7.30598 18990 ft 398 kts 146°
2026-05-05 11:52 51.05586 7.32956 19600 ft 400 kts 150°
2026-05-05 11:53 51.03208 7.35278 20201 ft 402 kts 150°
2026-05-05 11:53 51.00818 7.37625 20790 ft 404 kts 150°
2026-05-05 11:53 50.98422 7.39971 21351 ft 407 kts 150°
2026-05-05 11:53 50.96002 7.42338 21895 ft 409 kts 150°
2026-05-05 11:54 50.93564 7.44719 22448 ft 412 kts 150°
2026-05-05 11:54 50.91117 7.47098 22796 ft 413 kts 150°
2026-05-05 11:54 50.88645 7.49489 22874 ft 422 kts 150°
2026-05-05 11:54 50.86102 7.51938 22872 ft 433 kts 150°
2026-05-05 11:55 50.83515 7.54430 22861 ft 437 kts 150°
2026-05-05 11:55 50.80916 7.56935 22869 ft 438 kts 150°
2026-05-05 11:55 50.78319 7.59364 22858 ft 423 kts 155°
2026-05-05 11:55 50.75661 7.61223 22870 ft 414 kts 158°
2026-05-05 11:56 50.73012 7.62997 22873 ft 411 kts 159°
2026-05-05 11:56 50.70434 7.64713 22801 ft 393 kts 159°
2026-05-05 11:56 50.67965 7.66350 22655 ft 378 kts 159°
2026-05-05 11:56 50.65584 7.67924 22530 ft 364 kts 159°
2026-05-05 11:57 50.63292 7.69440 22396 ft 351 kts 159°
2026-05-05 11:57 50.61081 7.70908 22226 ft 339 kts 159°
2026-05-05 11:57 50.58953 7.72319 21902 ft 334 kts 159°
2026-05-05 11:57 50.56826 7.73731 21488 ft 331 kts 159°
2026-05-05 11:58 50.54707 7.75138 21065 ft 329 kts 159°
2026-05-05 11:58 50.52606 7.76532 20655 ft 327 kts 159°
2026-05-05 11:58 50.50515 7.77914 20230 ft 325 kts 159°
2026-05-05 11:58 50.48438 7.79280 19821 ft 324 kts 159°
2026-05-05 11:59 50.46333 7.80660 19046 ft 333 kts 159°
2026-05-05 11:59 50.44191 7.82112 18211 ft 335 kts 154°
2026-05-05 11:59 50.42227 7.84073 17280 ft 336 kts 143°
2026-05-05 11:59 50.40407 7.86349 16365 ft 334 kts 143°
2026-05-05 12:00 50.38592 7.88619 15466 ft 332 kts 143°
2026-05-05 12:00 50.36781 7.90873 14603 ft 331 kts 143°
2026-05-05 12:00 50.34982 7.93106 13765 ft 329 kts 143°
2026-05-05 12:00 50.33190 7.95325 12839 ft 327 kts 143°
2026-05-05 12:01 50.31434 7.97492 11955 ft 324 kts 143°
2026-05-05 12:01 50.29681 7.99655 11547 ft 306 kts 143°
2026-05-05 12:01 50.28208 8.01959 10512 ft 312 kts 126°
2026-05-05 12:01 50.27358 8.05174 9738 ft 327 kts 101°
2026-05-05 12:02 50.27115 8.08625 9596 ft 313 kts 97°
2026-05-05 12:02 50.26893 8.11940 9474 ft 300 kts 98°
2026-05-05 12:02 50.26671 8.15124 9275 ft 290 kts 98°
2026-05-05 12:02 50.26451 8.18238 8932 ft 286 kts 98°
2026-05-05 12:03 50.26238 8.21327 8530 ft 284 kts 97°
2026-05-05 12:03 50.26031 8.24387 8127 ft 283 kts 98°
2026-05-05 12:03 50.25823 8.27435 7859 ft 280 kts 97°
2026-05-05 12:03 50.25618 8.30467 7848 ft 281 kts 97°
2026-05-05 12:04 50.25413 8.33501 7853 ft 281 kts 97°
2026-05-05 12:04 50.25204 8.36549 7850 ft 281 kts 98°
2026-05-05 12:04 50.24995 8.39585 7857 ft 281 kts 97°
2026-05-05 12:04 50.24785 8.42633 7848 ft 281 kts 98°
2026-05-05 12:05 50.24572 8.45677 7845 ft 282 kts 98°
2026-05-05 12:05 50.24430 8.47695 7844 ft 282 kts 97°
2026-05-05 12:05 50.24216 8.50729 7796 ft 280 kts 98°
2026-05-05 12:05 50.23931 8.54725 7258 ft 278 kts 98°
2026-05-05 12:06 50.23718 8.57720 6846 ft 276 kts 97°
2026-05-05 12:06 50.23507 8.60694 6448 ft 275 kts 98°
2026-05-05 12:06 50.23366 8.62661 6187 ft 274 kts 98°
2026-05-05 12:06 50.23158 8.65606 5790 ft 273 kts 98°
2026-05-05 12:07 50.22950 8.68546 5377 ft 271 kts 97°
2026-05-05 12:07 50.22738 8.71468 4964 ft 270 kts 98°
2026-05-05 12:07 50.22527 8.74376 4549 ft 268 kts 98°
2026-05-05 12:07 50.22318 8.77260 4126 ft 267 kts 97°
2026-05-05 12:08 50.22110 8.80129 4003 ft 265 kts 97°
2026-05-05 12:08 50.21945 8.83012 4010 ft 267 kts 93°
2026-05-05 12:08 50.21967 8.85914 4005 ft 267 kts 87°
2026-05-05 12:08 50.22185 8.88796 4010 ft 268 kts 81°
2026-05-05 12:09 50.22378 8.91669 4004 ft 267 kts 96°
2026-05-05 12:09 50.21784 8.94372 4013 ft 265 kts 125°
2026-05-05 12:09 50.20459 8.96265 4008 ft 263 kts 154°
2026-05-05 12:09 50.18757 8.97276 4014 ft 262 kts 165°
2026-05-05 12:10 50.16957 8.97424 4014 ft 262 kts 193°
2026-05-05 12:10 50.15384 8.96242 4006 ft 244 kts 219°
2026-05-05 12:10 50.14153 8.94523 4006 ft 233 kts 223°
2026-05-05 12:10 50.12986 8.92766 4016 ft 232 kts 224°
2026-05-05 12:11 50.11845 8.90991 4001 ft 231 kts 230°
2026-05-05 12:11 50.11101 8.88785 4008 ft 233 kts 249°
2026-05-05 12:11 50.10557 8.86401 3963 ft 233 kts 250°
2026-05-05 12:11 50.10009 8.84022 3728 ft 232 kts 250°
2026-05-05 12:12 50.09455 8.81667 3437 ft 232 kts 249°
2026-05-05 12:12 50.08903 8.79325 3131 ft 230 kts 249°
2026-05-05 12:12 50.08353 8.76996 2835 ft 228 kts 249°
2026-05-05 12:12 50.07806 8.74684 2520 ft 227 kts 249°
2026-05-05 12:13 50.07262 8.72381 2221 ft 224 kts 249°
2026-05-05 12:13 50.06743 8.70190 1931 ft 212 kts 249°
2026-05-05 12:13 50.06241 8.68073 1683 ft 198 kts 249°
2026-05-05 12:13 50.05780 8.66129 1402 ft 188 kts 249°
2026-05-05 12:14 50.05344 8.64293 1146 ft 172 kts 249°
2026-05-05 12:14 50.04948 8.62625 933 ft 157 kts 250°
2026-05-05 12:14 50.04592 8.61131 744 ft 142 kts 250°
2026-05-05 12:14 50.04263 8.59749 549 ft 134 kts 250°
2026-05-05 12:15 50.03951 8.58417 362 ft 126 kts 249°
2026-05-05 12:15 50.03673 8.57291 352 ft 93 kts 250°
2026-05-05 12:15 50.03513 8.56596 348 ft 44 kts 250°
2026-05-05 12:15 50.03455 8.56346 346 ft 18 kts 250°
2026-05-05 12:16 50.03429 8.56132 344 ft 22 kts 274°
2026-05-05 12:16 50.03453 8.55901 344 ft 16 kts 277°
2026-05-05 12:16 50.03465 8.55791 347 ft 8 kts 282°
2026-05-05 12:16 50.03478 8.55685 348 ft 13 kts 280°
2026-05-05 12:17 50.03492 8.55524 348 ft 17 kts 271°
2026-05-05 12:17 50.03458 8.55330 348 ft 21 kts 250°
2026-05-05 12:17 50.03405 8.55111 350 ft 22 kts 249°
2026-05-05 12:17 50.03350 8.54878 346 ft 24 kts 250°
2026-05-05 12:18 50.03294 8.54641 346 ft 21 kts 250°
2026-05-05 12:18 50.03302 8.54488 344 ft 15 kts 333°
2026-05-05 12:18 50.03336 8.54467 347 ft 0 kts 340°
2026-05-05 12:19 50.03337 8.54467 347 ft 2 kts 340°
2026-05-05 12:19 50.03379 8.54443 352 ft 8 kts 340°
2026-05-05 12:20 50.03431 8.54413 351 ft 8 kts 339°
2026-05-05 12:20 50.03511 8.54366 348 ft 18 kts 340°
2026-05-05 12:20 50.03603 8.54313 349 ft 11 kts 340°
2026-05-05 12:20 50.03665 8.54342 351 ft 10 kts 58°
2026-05-05 12:21 50.03686 8.54437 349 ft 9 kts 69°
2026-05-05 12:21 50.03708 8.54525 354 ft 9 kts 69°
2026-05-05 12:21 50.03729 8.54611 350 ft 9 kts 70°
2026-05-05 12:21 50.03764 8.54761 346 ft 15 kts 70°
2026-05-05 12:22 50.03798 8.54904 353 ft 14 kts 70°
2026-05-05 12:22 50.03815 8.54979 354 ft 0 kts 70°
2026-05-05 12:22 50.03826 8.55025 352 ft 12 kts 69°
2026-05-05 12:23 50.03873 8.55215 353 ft 25 kts 69°
2026-05-05 12:23 50.03928 8.55445 353 ft 17 kts 70°
2026-05-05 12:23 50.03967 8.55607 348 ft 15 kts 70°
2026-05-05 12:23 50.04002 8.55752 353 ft 14 kts 66°
2026-05-05 12:24 50.04033 8.55886 349 ft 13 kts 71°
2026-05-05 12:24 50.04062 8.56010 348 ft 12 kts 69°
2026-05-05 12:24 50.04091 8.56126 348 ft 11 kts 69°
2026-05-05 12:24 50.04116 8.56233 349 ft 10 kts 69°
2026-05-05 12:25 50.04140 8.56331 353 ft 9 kts 70°
2026-05-05 12:25 50.04161 8.56423 349 ft 9 kts 70°
2026-05-05 12:25 50.04181 8.56508 351 ft 8 kts 70°
2026-05-05 12:25 50.04200 8.56587 353 ft 8 kts 70°
2026-05-05 12:26 50.04217 8.56661 354 ft 7 kts 69°
2026-05-05 12:26 50.04234 8.56728 348 ft 7 kts 69°
2026-05-05 12:26 50.04236 8.56737 347 ft 0 kts 69°
2026-05-05 12:27 50.04246 8.56768 349 ft 3 kts 59°
2026-05-05 12:27 50.04261 8.56791 348 ft 3 kts 38°
2026-05-05 12:27 50.04289 8.56808 351 ft 5 kts 15°
2026-05-05 12:28 50.04319 8.56819 345 ft 4 kts 12°
2026-05-05 12:28 50.04347 8.56828 346 ft 4 kts 12°
2026-05-05 12:28 50.04374 8.56836 346 ft 4 kts 11°
2026-05-05 12:28 50.04401 8.56844 348 ft 7 kts
2026-05-05 12:29 50.04448 8.56857 346 ft 0 kts 10°
2026-05-05 12:29 50.04467 8.56862 346 ft 4 kts 10°
2026-05-05 12:29 50.04517 8.56879 346 ft 8 kts 13°
2026-05-05 12:29 50.04547 8.56889 346 ft 0 kts 13°
2026-05-05 12:30 50.04576 8.56899 352 ft 12 kts 13°
2026-05-05 12:30 50.04621 8.56895 348 ft 6 kts 329°
2026-05-05 12:30 50.04644 8.56850 351 ft 5 kts 298°
2026-05-05 12:30 50.04652 8.56824 349 ft 0 kts 294°